CST,Max TemperatureF,Mean TemperatureF,Min TemperatureF,Max Dew PointF,MeanDew PointF,Min DewpointF,Max Humidity, Mean Humidity, Min Humidity, Max Sea Level PressureIn, Mean Sea Level PressureIn, Min Sea Level PressureIn, Max VisibilityMiles, Mean VisibilityMiles, Min VisibilityMiles, Max Wind SpeedMPH, Mean Wind SpeedMPH, Max Gust SpeedMPH,PrecipitationIn, CloudCover, Events, WindDirDegrees
2013-1-1,21,14,6,19,12,3,100,93,79,30.21,30.11,29.97,10,7,2,14,6,18,0.00,6,,170
2013-1-2,30,19,8,27,19,7,100,90,73,30.19,29.99,29.91,10,9,2,22,9,29,0.00,6,,269
2013-1-3,19,10,1,18,9,0,100,85,74,30.31,30.23,30.12,10,10,5,16,11,21,0.00,2,,255
2013-1-4,28,14,1,16,10,-9,100,76,59,30.13,30.09,30.04,10,10,3,13,6,,0.00,0,,206
2013-1-5,23,12,1,18,8,-9,100,86,52,30.14,29.99,29.91,10,10,4,24,7,28,0.00,2,,286
2013-1-6,26,14,1,21,9,-6,100,87,72,30.21,30.09,29.87,10,9,5,22,7,28,0.00,1,,173
2013-1-7,33,26,19,25,20,16,100,78,60,29.97,29.92,29.85,10,10,10,18,8,24,0.00,0,,218
2013-1-8,35,24,14,30,23,12,100,88,75,30.01,29.84,29.71,10,9,5,15,7,23,0.00,3,,207
2013-1-9,33,27,21,30,24,16,93,81,69,30.29,30.19,30.02,10,10,10,18,12,24,0.00,0,,199
2013-1-10,35,32,28,34,28,21,100,80,60,30.17,29.92,29.57,10,8,1,22,16,29,0.00,4,,169
2013-1-11,35,25,15,34,31,12,100,95,86,29.57,29.44,29.33,10,2,0,25,11,31,0.00,8,,205
2013-1-12,15,9,3,10,1,-2,92,81,67,30.09,29.91,29.56,10,8,1,25,18,34,0.00,6,,287
2013-1-13,10,4,0,7,-1,-6,100,81,72,30.22,30.14,30.05,10,10,10,17,10,18,0.00,4,,276
2013-1-14,14,7,0,10,3,-8,100,82,52,30.36,30.27,30.21,10,10,9,12,6,,0.00,2,,208
2013-1-15,26,14,3,18,8,0,100,77,64,30.20,30.05,29.78,10,10,10,16,9,22,0.00,1,,173
2013-1-16,37,22,6,32,20,-4,100,81,61,30.26,29.92,29.72,10,10,4,18,13,24,0.00,4,,289
2013-1-17,28,17,6,25,13,-6,93,77,52,30.38,30.31,30.11,10,10,8,13,4,,0.00,7,,95
2013-1-18,39,32,24,30,27,21,100,80,65,30.09,29.86,29.78,10,10,7,16,10,20,0.00,1,,200
2013-1-19,37,19,1,30,18,-6,85,75,59,30.31,29.98,29.76,10,10,1,34,14,45,0.00,3,,283
2013-1-20,10,2,-5,5,-2,-13,92,80,65,30.40,30.33,30.29,10,8,0,25,11,32,0.00,5,,296
2013-1-21,1,-4,-9,-2,-11,-20,100,76,50,30.36,30.31,30.26,10,10,5,22,14,33,0.00,0,,278
2013-1-22,14,6,-2,10,0,-9,92,75,56,30.30,30.23,30.13,10,10,10,14,5,,0.00,6,,192
2013-1-23,15,4,-7,10,0,-17,100,78,61,30.53,30.30,30.11,10,10,10,21,10,25,0.00,1,,322
2013-1-24,12,2,-9,7,-4,-18,85,74,56,30.54,30.31,30.04,10,10,10,23,12,30,0.00,2,,153
2013-1-25,23,12,1,19,5,-6,93,76,53,30.24,30.12,30.00,10,10,9,28,12,36,0.00,2,,310
2013-1-26,30,15,0,23,9,-6,92,77,62,30.24,30.08,29.92,10,10,10,20,9,24,0.00,0,,134
2013-1-27,33,30,28,34,28,21,100,87,74,29.92,29.80,29.72,10,7,0,16,11,22,0.00,5,,159
2013-1-28,35,32,30,36,33,30,100,97,93,29.83,29.75,29.61,2,1,0,16,4,20,0.00,8,,174
2013-1-29,30,24,19,30,23,16,100,89,80,29.83,29.71,29.60,10,7,2,25,12,29,0.00,6,,355
2013-1-30,21,8,-5,18,5,-15,93,82,65,29.87,29.82,29.79,10,9,3,24,19,30,0.00,6,,334
2013-1-31,-5,-8,-11,-9,-14,-17,100,78,71,30.29,30.13,29.87,10,9,3,26,17,32,0.00,5,,317